Weather History for KHXD - October, 2013

Change the Weather History Date:

Tuesday, October 29, 2013

  Actual Average Record
Temperature  
Mean Temperature 63 °F -  
Max Temperature 71 °F 72 °F 83 °F (1983)
Min Temperature 55 °F 52 °F 32 °F (1976)
Degree Days  
Heating Degree Days 2    
Growing Degree Days 13 (Base 50)    
Moisture  
Dew Point 56 °F    
Average Humidity 88    
Maximum Humidity 100    
Minimum Humidity 50    
Precipitation  
Precipitation 0.00 in - - ()
Sea Level Pressure  
Sea Level Pressure 30.28 in    
Wind  
Wind Speed 1 mph (NNE)    
Max Wind Speed 8 mph    
Max Gust Speed -    
Visibility 7 miles    
Events      
Averages and records for this station are not official NWS values.
T = Trace of Precipitation, MM = Missing Value Source: NWS Daily Summary

Daily Weather History Graph

Daily Weather History Graph

Search for Another Location

Airport or City:

Trip Planner

Search our weather history database for the weather conditions in past years. The results will help you decide how hot, cold, wet, or windy it might be!

Date:

Astronomy

Oct. 29, 2013 Rise Set
Actual Time 7:37 AM EDT 6:35 PM EDT
Civil Twilight 7:12 AM EDT 7:00 PM EDT
Nautical Twilight 6:43 AM EDT 7:29 PM EDT
Astronomical Twilight 6:14 AM EDT 7:57 PM EDT
Moon 2:43 AM EDT 3:32 PM EDT
Length of Visible Light 11h 48m
Length of Day
10h 57m
Waning Crescent, 25% of the Moon is Illuminated
Oct 29
Waning Crescent
Nov 3
New
Nov 10
First Quarter
Nov 17
Full
Nov 25
Last Quarter

Hourly Weather History & Observations

Time (EDT) Temp. Dew Point Humidity Pressure Visibility Wind Dir Wind Speed Gust Speed Precip Events Conditions
12:15 AM 57.2 °F 57.2 °F 100% 30.27 in 7.0 mi Calm Calm - 0.00 in   Clear
12:35 AM 57.2 °F 57.2 °F 100% 30.28 in 5.0 mi Calm Calm - 0.00 in   Clear
12:55 AM 57.2 °F 55.4 °F 94% 30.27 in 5.0 mi Calm Calm - 0.00 in   Clear
1:15 AM 55.4 °F 55.4 °F 100% 30.27 in 5.0 mi Calm Calm - 0.00 in   Clear
1:35 AM 55.4 °F 55.4 °F 100% 30.27 in 5.0 mi Calm Calm - 0.00 in   Clear
1:55 AM 55.4 °F 55.4 °F 100% 30.26 in 5.0 mi Calm Calm - 0.00 in   Clear
2:15 AM 55.4 °F 55.4 °F 100% 30.25 in 4.0 mi Calm Calm - 0.00 in   Clear
2:35 AM 55.4 °F 55.4 °F 100% 30.25 in 3.0 mi Calm Calm - 0.00 in   Clear
2:55 AM 55.4 °F 55.4 °F 100% 30.25 in 5.0 mi Calm Calm - 0.00 in   Clear
3:15 AM 55.4 °F 55.4 °F 100% 30.25 in 5.0 mi Calm Calm - 0.00 in   Clear
3:35 AM 55.4 °F 55.4 °F 100% 30.26 in 7.0 mi Calm Calm - 0.00 in   Clear
3:55 AM 55.4 °F 55.4 °F 100% 30.26 in 4.0 mi Calm Calm - 0.00 in   Clear
4:15 AM 57.2 °F 55.4 °F 94% 30.26 in 7.0 mi NW 3.5 mph - 0.00 in   Clear
4:35 AM 57.2 °F 57.2 °F 100% 30.26 in 1.8 mi Calm Calm - 0.00 in   Clear
4:55 AM 55.4 °F 55.4 °F 100% 30.27 in 3.0 mi North 3.5 mph - 0.00 in   Clear
5:15 AM 55.4 °F 55.4 °F 100% 30.27 in 6.0 mi Calm Calm - 0.00 in   Clear
5:35 AM 55.4 °F 55.4 °F 100% 30.28 in 5.0 mi Calm Calm - 0.00 in   Clear
5:55 AM 55.4 °F 55.4 °F 100% 30.28 in 3.0 mi Calm Calm - 0.00 in   Clear
6:15 AM 55.4 °F 55.4 °F 100% 30.28 in 1.8 mi Calm Calm - 0.00 in   Clear
6:35 AM 55.4 °F 55.4 °F 100% 30.29 in 2.0 mi Calm Calm - 0.00 in   Clear
6:50 AM 62.6 °F 60.8 °F 94% 30.29 in 10.0 mi Calm Calm - N/A   Clear
7:50 AM 60.8 °F 57.2 °F 88% 30.31 in 10.0 mi Calm Calm - N/A   Clear
9:55 AM 66.2 °F 57.2 °F 73% 30.34 in 10.0 mi North 6.9 mph - N/A   Clear
10:47 AM 68.0 °F 57.2 °F 68% 30.34 in 10.0 mi North 8.1 mph - N/A   Clear
11:50 AM 71.6 °F 55.4 °F 57% 30.33 in 10.0 mi North 5.8 mph - N/A   Clear
12:50 PM 71.6 °F 55.4 °F 57% 30.31 in 10.0 mi ENE 5.8 mph - N/A   Clear
1:55 PM 71.6 °F 51.8 °F 50% 30.28 in 10.0 mi ENE 5.8 mph - N/A   Clear
2:47 PM 71.6 °F 53.6 °F 53% 30.26 in 10.0 mi ENE 4.6 mph - N/A   Clear
3:50 PM 71.6 °F 53.6 °F 53% 30.26 in 10.0 mi NE 4.6 mph - N/A   Clear
4:50 PM 71.6 °F 55.4 °F 57% 30.27 in 10.0 mi East 4.6 mph - N/A   Clear
5:50 PM 69.8 °F 59.0 °F 68% 30.28 in 10.0 mi NE 8.1 mph - N/A   Clear
6:50 PM 68.0 °F 59.0 °F 73% 30.27 in 10.0 mi Calm Calm - N/A   Clear
7:50 PM 68.0 °F 59.0 °F 73% 30.28 in 10.0 mi Calm Calm - N/A   Clear
9:15 PM 60.8 °F 59.0 °F 94% 30.31 in 10.0 mi Calm Calm - 0.00 in   Clear
9:35 PM 60.8 °F 59.0 °F 94% 30.30 in 10.0 mi Calm Calm - 0.00 in   Clear
9:55 PM 59.0 °F 57.2 °F 94% 30.31 in 10.0 mi Calm Calm - 0.00 in   Clear
10:15 PM 59.0 °F 57.2 °F 94% 30.31 in 10.0 mi Calm Calm - 0.00 in   Clear
10:35 PM 59.0 °F 57.2 °F 94% 30.31 in 10.0 mi Calm Calm - 0.00 in   Clear
10:55 PM 59.0 °F 57.2 °F 94% 30.31 in 10.0 mi Calm Calm - 0.00 in   Clear
11:15 PM 59.0 °F 57.2 °F 94% 30.32 in 10.0 mi Calm Calm - 0.00 in   Clear
11:35 PM 59.0 °F 57.2 °F 94% 30.31 in 9.0 mi Calm Calm - 0.00 in   Clear
11:55 PM 57.2 °F 57.2 °F 100% 30.31 in 7.0 mi Calm Calm - 0.00 in   Clear